Weather History for Highgate, VT

Change the Weather History Date:

Wednesday, July 10, 2013

  Actual Average (KPBG) Record (KPBG)
Temperature  
Mean Temperature 79 °F 69 °F  
Max Temperature 88 °F 80 °F 94 °F (1955)
Min Temperature 72 °F 58 °F 48 °F (2012)
Cooling Degree Days 14 5  
Month to date cooling degree days 44  
Year to date cooling degree days 114  
Since 1 June cooling degree days 106  
Growing Degree Days 29 (Base 50)    
Moisture  
Dew Point 68 °F    
Average Humidity 71    
Maximum Humidity 88    
Minimum Humidity 55    
Precipitation  
Precipitation 0.00 in - 1.19 in (1989)
Month to date precipitation  
Year to date precipitation  
Sea Level Pressure  
Sea Level Pressure 29.79 in    
Wind  
Wind Speed 7 mph (SSE)    
Max Wind Speed 15 mph    
Max Gust Speed 28 mph    
Visibility 8 miles    
Events Rain    
T = Trace of Precipitation, MM = Missing Value Source: NWS Daily Summary

Daily Weather History Graph

Daily Weather History Graph

Search for Another Location

Airport:

Trip Planner

Search our weather history database for the weather conditions in past years. The results will help you decide how hot, cold, wet, or windy it might be!

Date:

Astronomy

Jul. 10, 2013 Rise Set
Actual Time 5:16 AM EDT 8:39 PM EDT
Civil Twilight 4:39 AM EDT 9:15 PM EDT
Nautical Twilight 3:52 AM EDT 10:02 PM EDT
Astronomical Twilight 2:51 AM EDT 11:02 PM EDT
Moon 7:42 AM EDT (7/10) 9:37 PM EDT (7/10)
Length of Visible Light 16h 35m
Length of Day
15h 22m
Waxing Crescent, 5% of the Moon is Illuminated
Jul 10
Waxing Crescent
Jul 15
First Quarter
Jul 22
Full
Jul 29
Last Quarter
Aug 6
New

Hourly Weather History & Observations

Time (EDT) Temp. Heat Index Dew Point Humidity Pressure Visibility Wind Dir Wind Speed Gust Speed Precip Events Conditions
12:15 AM 74.5 °F - 68.5 °F 82% 29.94 in 10.0 mi SE 3.5 mph - N/A   Clear
12:35 AM 74.5 °F - 68.0 °F 80% 29.94 in 10.0 mi SE 3.5 mph - N/A   Clear
12:55 AM 74.5 °F - 68.2 °F 81% 29.94 in 10.0 mi ESE 4.6 mph - N/A   Clear
1:15 AM 74.5 °F - 68.4 °F 81% 29.93 in 10.0 mi SE 5.8 mph - N/A   Clear
1:35 AM 74.5 °F - 68.5 °F 82% 29.93 in 10.0 mi SE 5.8 mph - N/A   Clear
1:55 AM 74.5 °F - 68.2 °F 81% 29.92 in 10.0 mi SE 5.8 mph - N/A   Clear
2:15 AM 74.5 °F - 68.0 °F 80% 29.92 in 10.0 mi SE 3.5 mph - N/A   Clear
2:35 AM 74.3 °F - 67.8 °F 80% 29.92 in 10.0 mi SE 4.6 mph - N/A   Clear
2:55 AM 74.3 °F - 67.6 °F 80% 29.91 in 10.0 mi SE 5.8 mph - N/A   Clear
3:15 AM 74.3 °F - 67.5 °F 79% 29.90 in 10.0 mi SE 6.9 mph - N/A   Clear
3:35 AM 74.5 °F - 67.5 °F 79% 29.90 in 10.0 mi SE 4.6 mph - N/A   Clear
3:55 AM 73.6 °F - 66.7 °F 79% 29.89 in 10.0 mi ESE 6.9 mph - N/A   Clear
4:15 AM 73.2 °F - 66.4 °F 79% 29.89 in 10.0 mi SE 5.8 mph - N/A   Clear
4:35 AM 72.0 °F - 65.8 °F 81% 29.89 in 10.0 mi SE 6.9 mph - N/A   Clear
4:55 AM 72.0 °F - 66.2 °F 82% 29.88 in 10.0 mi SE 6.9 mph - N/A   Clear
5:15 AM 72.0 °F - 66.2 °F 82% 29.88 in 10.0 mi SE 6.9 mph - N/A   Scattered Clouds
5:35 AM 72.1 °F - 65.8 °F 80% 29.87 in 10.0 mi SE 6.9 mph - N/A   Scattered Clouds
5:55 AM 72.0 °F - 66.2 °F 82% 29.87 in 10.0 mi SE 5.8 mph - N/A   Scattered Clouds
6:15 AM 74.5 °F - 67.3 °F 78% 29.87 in 10.0 mi SSE 4.6 mph - N/A   Scattered Clouds
6:35 AM 74.5 °F - 66.0 °F 75% 29.87 in 10.0 mi SSE 10.4 mph 17.3 mph N/A   Scattered Clouds
6:55 AM 76.6 °F - 67.1 °F 72% 29.86 in 10.0 mi SSE 11.5 mph 17.3 mph N/A   Scattered Clouds
7:15 AM 76.3 °F - 66.7 °F 72% 29.86 in 10.0 mi SSE 9.2 mph 16.1 mph N/A   Mostly Cloudy
7:35 AM 77.0 °F - 67.3 °F 72% 29.86 in 10.0 mi SSE 9.2 mph - N/A   Overcast
7:55 AM 77.0 °F - 66.7 °F 70% 29.85 in 10.0 mi SSE 10.4 mph - N/A   Overcast
8:15 AM 77.0 °F - 65.8 °F 68% 29.84 in 10.0 mi South 10.4 mph 19.6 mph N/A   Mostly Cloudy
8:35 AM 77.0 °F - 65.7 °F 68% 29.84 in 10.0 mi South 9.2 mph - N/A   Mostly Cloudy
8:55 AM 77.0 °F - 65.8 °F 68% 29.84 in 10.0 mi South 9.2 mph - N/A   Mostly Cloudy
9:15 AM 79.7 °F - 67.1 °F 65% 29.83 in 10.0 mi SSE 13.8 mph 20.7 mph N/A   Scattered Clouds
9:35 AM 79.7 °F - 66.4 °F 64% 29.82 in 10.0 mi SSE 10.4 mph 18.4 mph N/A   Mostly Cloudy
9:55 AM 79.7 °F - 67.3 °F 66% 29.82 in 0.8 mi South 11.5 mph 20.7 mph N/A   Haze
10:15 AM 80.6 °F 83.1 °F 67.3 °F 64% 29.82 in 1.0 mi South 9.2 mph 20.7 mph N/A   Haze
10:35 AM 80.8 °F 83.2 °F 66.9 °F 63% 29.81 in 1.0 mi South 13.8 mph 21.9 mph N/A   Haze
10:55 AM 80.8 °F 82.9 °F 66.2 °F 61% 29.80 in 1.0 mi South 12.7 mph 24.2 mph N/A   Haze
11:15 AM 82.2 °F 84.6 °F 66.7 °F 59% 29.80 in 0.8 mi South 11.5 mph 19.6 mph N/A   Haze
11:35 AM 81.9 °F 84.2 °F 66.6 °F 60% 29.79 in 0.8 mi South 15.0 mph 27.6 mph N/A   Haze
11:55 AM 82.9 °F 85.6 °F 67.1 °F 59% 29.79 in 0.5 mi South 12.7 mph 18.4 mph N/A   Haze
12:15 PM 83.8 °F 86.5 °F 67.3 °F 57% 29.77 in 1.2 mi South 9.2 mph 21.9 mph N/A   Haze
12:35 PM 84.2 °F 86.8 °F 67.1 °F 56% 29.77 in 1.2 mi South 13.8 mph 24.2 mph N/A   Haze
12:55 PM 86.4 °F 90.0 °F 68.7 °F 55% 29.76 in 1.2 mi South 9.2 mph 18.4 mph N/A   Haze
1:15 PM 83.1 °F 85.9 °F 67.3 °F 59% 29.76 in 5.0 mi South 11.5 mph 17.3 mph N/A   Haze
1:35 PM 79.9 °F - 68.0 °F 67% 29.76 in 5.0 mi SSW 5.8 mph - N/A Rain Light Rain
1:55 PM 79.7 °F - 70.2 °F 73% 29.77 in 5.0 mi SSW 5.8 mph - N/A Rain Rain
2:15 PM 79.7 °F - 69.1 °F 70% 29.75 in 5.0 mi South 10.4 mph 19.6 mph N/A Rain Light Rain
2:35 PM 80.8 °F 84.1 °F 69.6 °F 69% 29.74 in 7.0 mi South 10.4 mph 16.1 mph N/A   Scattered Clouds
2:55 PM 82.0 °F 85.5 °F 69.4 °F 65% 29.73 in 7.0 mi South 13.8 mph 20.7 mph N/A   Mostly Cloudy
3:15 PM 83.1 °F 86.6 °F 69.1 °F 62% 29.71 in 7.0 mi South 12.7 mph 21.9 mph N/A   Scattered Clouds
3:35 PM 82.0 °F 85.3 °F 68.9 °F 64% 29.71 in 10.0 mi South 8.1 mph 18.4 mph N/A   Mostly Cloudy
3:55 PM 82.9 °F 86.3 °F 68.9 °F 62% 29.71 in 7.0 mi South 8.1 mph 19.6 mph N/A   Scattered Clouds
4:15 PM 86.5 °F 91.4 °F 70.2 °F 58% 29.71 in 10.0 mi South 12.7 mph 21.9 mph N/A   Mostly Cloudy
4:35 PM 83.1 °F 86.3 °F 68.2 °F 61% 29.70 in 10.0 mi South 10.4 mph 16.1 mph N/A   Overcast
4:55 PM 84.2 °F 87.6 °F 68.4 °F 59% 29.69 in 10.0 mi South 11.5 mph 18.4 mph N/A   Scattered Clouds
5:15 PM 84.6 °F 87.6 °F 68.0 °F 57% 29.69 in 10.0 mi South 11.5 mph 21.9 mph N/A   Clear
5:35 PM 81.5 °F 84.4 °F 68.2 °F 64% 29.68 in 10.0 mi South 9.2 mph 21.9 mph N/A   Scattered Clouds
5:55 PM 81.3 °F 84.3 °F 68.5 °F 65% 29.68 in 10.0 mi South 10.4 mph 16.1 mph N/A   Scattered Clouds
6:15 PM 82.8 °F 86.0 °F 68.7 °F 62% 29.67 in 10.0 mi South 9.2 mph 18.4 mph N/A   Scattered Clouds
6:35 PM 82.2 °F 85.1 °F 68.2 °F 62% 29.68 in 10.0 mi South 8.1 mph 19.6 mph N/A   Clear
6:55 PM 82.0 °F 85.3 °F 68.9 °F 64% 29.68 in 10.0 mi South 12.7 mph 17.3 mph N/A   Scattered Clouds
7:15 PM 82.0 °F 85.5 °F 69.3 °F 65% 29.69 in 10.0 mi SSW 8.1 mph - N/A   Scattered Clouds
7:35 PM 81.0 °F 84.1 °F 69.1 °F 67% 29.68 in 10.0 mi South 6.9 mph - N/A   Scattered Clouds
7:55 PM 80.6 °F 83.8 °F 69.4 °F 69% 29.68 in 10.0 mi South 6.9 mph - N/A   Clear
8:15 PM 79.7 °F - 69.4 °F 71% 29.67 in 10.0 mi South 8.1 mph 16.1 mph N/A   Clear
8:35 PM 79.7 °F - 70.2 °F 73% 29.68 in 10.0 mi South 9.2 mph - N/A   Clear
8:55 PM 79.7 °F - 70.7 °F 74% 29.68 in 10.0 mi South 9.2 mph - N/A   Clear
9:15 PM 79.5 °F - 70.9 °F 75% 29.69 in 10.0 mi South 6.9 mph 16.1 mph N/A   Clear
9:35 PM 77.5 °F - 69.8 °F 77% 29.70 in 10.0 mi South 6.9 mph - N/A   Clear
9:55 PM 77.4 °F - 69.8 °F 77% 29.71 in 10.0 mi South 6.9 mph - N/A   Clear
10:15 PM 77.0 °F - 69.4 °F 77% 29.71 in 10.0 mi SSW 6.9 mph - N/A   Clear
10:35 PM 77.0 °F - 70.0 °F 79% 29.71 in 10.0 mi SSW 4.6 mph - N/A   Mostly Cloudy
10:55 PM 77.0 °F - 70.7 °F 81% 29.73 in 2.5 mi SW 6.9 mph 21.9 mph N/A Rain Heavy Rain
11:15 PM 74.5 °F - 70.2 °F 86% 29.72 in 7.0 mi WSW 3.5 mph - N/A Rain Rain
11:35 PM 74.5 °F - 69.8 °F 85% 29.72 in 10.0 mi SW 3.5 mph - N/A Rain Light Rain
11:55 PM 74.5 °F - 70.7 °F 88% 29.71 in 7.0 mi SSE 4.6 mph - N/A   Mostly Cloudy